COSMOS 1275 DEB, 19025

Orbit data source: Space-Track

COSMOS 1275 DEB, 19025 is space debris in LEO originally from a launch on Thu, 04 Jun 1981 UTC launched from the Plesetsk Missile And Space Complex (PKMTR). Debris objects in space refer to the collection of defunct objects orbiting the Earth. Examples of debris include non-operational satellites, rocket bodies, and fragments generated from explosions, collisions, or faulty payload assembly.

Loading next visibility...
Identifier
19025, 1981-053MC
Orbit
LEO
Country
Flag of CISCIS
Related business
Manufacturer
Unknown
Mission
Spacecraft
Bus & Motor
Unknown
Mass
Unknown
Launch date (UTC)
1981-06-04 (45 years ago)
Launch vehicle
Unknown
Launch site
Plesetsk Missile And Space Complex (PKMTR)
Object type
Payload
Rocket body
Debris
Shape & HBR
Unknown shape, 0.1 m
Radar Cross Section
Medium (>0.1 m² and <1 m²)

Expand to show TLE details & history
Last TLE update: 1 day ago

TLE from 1 day ago
0 COSMOS 1275 DEB
1 19025U 81053MC  26171.25536299  .00003065  00000-0  11510-2 0  9996
2 19025  82.7023 114.9722 0022817 138.1855 222.1080 14.31218634103673
Epoch: 2026-06-20T06:07Z
TLE epoch observation values (Epoch: 2026-06-20T06:07:43.362Z)
Latitude
-0.00005°
Longitude
114.56891°
Altitude
802.781 km
Speed
7.446 km/s
True Right ascension
07h 39m 53s
True Declination
0° 00' 00"
Sunlit
Object was in daylight at epoch
Visualization orbit readout
Latitude
Unknown
Longitude
Unknown
Altitude
Unknown
Speed
Unknown
Apparent Right ascension
Unknown
Apparent Declination
Unknown
Sunlit
N/A
Visualization observer readout
Local Sidereal Time
02:46:38
Azimuth
Unknown
Elevation
Unknown
Doppler factor
Unknown
Orbital elements
Apogee altitude
801.085 km
Perigee altitude
768.398 km
Semi-major axis
7,162.878 km
Eccentricity
0.00228
Inclination
82.7023°
RAAN
114.9722°
Arg. of periapsis
138.1855°
True anomaly
221.93305°
Mean anomaly
222.108°
Eccentric anomaly
222.02049°
Mean motion
3.58024 °/min
Orbital period
100.55 mins
BSTAR
0.001151
Loading maneuver chart data...
Computing Atmospheric mass density...

Documentation

Showing up to 5 results
|